Time,TemperatureF,DewpointF,PressureIn,WindDirection,WindDirectionDegrees,WindSpeedMPH,WindSpeedGustMPH,Humidity,HourlyPrecipIn,Conditions,Clouds,dailyrainin,SoftwareType,DateUTC
2013-03-03 00:01:00,41.0,22.0,-100.00,SW,235,25.0,31.0,47,0.00,,,-99.99,,2013-03-03 07:01:00,
2013-03-03 00:11:00,40.0,22.0,-100.00,SW,235,26.0,31.0,47,0.00,,,-99.99,,2013-03-03 07:11:00,
2013-03-03 00:21:00,41.0,23.0,-100.00,SW,235,28.0,40.0,48,0.00,,,-99.99,,2013-03-03 07:21:00,
2013-03-03 00:31:00,40.0,22.0,-100.00,WSW,250,27.0,44.0,48,0.00,,,-99.99,,2013-03-03 07:31:00,
2013-03-03 00:42:00,40.0,23.0,-100.00,SW,235,29.0,39.0,49,0.00,,,-99.99,,2013-03-03 07:42:00,
2013-03-03 00:51:00,40.0,23.0,-100.00,SW,235,34.0,44.0,49,0.00,,,-99.99,,2013-03-03 07:51:00,
2013-03-03 01:01:00,40.0,23.0,-100.00,WSW,240,32.0,42.0,48,0.00,,,-99.99,,2013-03-03 08:01:00,
2013-03-03 01:11:00,40.0,22.0,-100.00,WSW,250,35.0,42.0,49,0.00,,,-99.99,,2013-03-03 08:11:00,
2013-03-03 01:21:00,40.0,22.0,-100.00,WSW,250,34.0,44.0,49,0.00,,,-99.99,,2013-03-03 08:21:00,
2013-03-03 01:31:00,40.0,23.0,-100.00,WSW,245,38.0,47.0,50,0.00,,,-99.99,,2013-03-03 08:31:00,
2013-03-03 01:41:00,40.0,22.0,-100.00,SW,235,39.0,46.0,50,0.00,,,-99.99,,2013-03-03 08:41:00,
2013-03-03 01:53:00,39.0,23.0,-100.00,SW,235,37.0,49.0,50,0.00,,,-99.99,,2013-03-03 08:53:00,
2013-03-03 02:01:00,39.0,23.0,-100.00,SW,235,36.0,49.0,51,0.00,,,-99.99,,2013-03-03 09:01:00,
2013-03-03 02:11:00,39.0,23.0,-100.00,WSW,240,35.0,54.0,52,0.00,,,-99.99,,2013-03-03 09:11:00,
2013-03-03 02:21:00,39.0,23.0,-100.00,SW,235,39.0,55.0,51,0.00,,,-99.99,,2013-03-03 09:21:00,
2013-03-03 02:32:00,39.0,23.0,-100.00,WSW,245,38.0,49.0,53,0.00,,,-99.99,,2013-03-03 09:32:00,
2013-03-03 02:41:00,38.0,23.0,-100.00,WSW,250,38.0,49.0,54,0.00,,,-99.99,,2013-03-03 09:41:00,
2013-03-03 02:51:00,38.0,24.0,-100.00,WSW,250,40.0,49.0,55,0.00,,,-99.99,,2013-03-03 09:51:00,
2013-03-03 03:01:00,38.0,24.0,-100.00,WSW,245,40.0,53.0,56,0.00,,,-99.99,,2013-03-03 10:01:00,
2013-03-03 03:11:00,38.0,24.0,-100.00,WSW,245,38.0,53.0,56,0.00,,,-99.99,,2013-03-03 10:11:00,
2013-03-03 03:21:00,37.0,24.0,-100.00,WSW,240,36.0,47.0,58,0.00,,,-99.99,,2013-03-03 10:21:00,
2013-03-03 03:32:00,38.0,24.0,-100.00,WSW,250,34.0,45.0,58,0.00,,,-99.99,,2013-03-03 10:32:00,
2013-03-03 03:42:00,37.0,24.0,-100.00,WSW,250,33.0,41.0,58,0.00,,,-99.99,,2013-03-03 10:42:00,
2013-03-03 03:52:00,37.0,24.0,-100.00,WSW,240,35.0,41.0,59,0.00,,,-99.99,,2013-03-03 10:52:00,
2013-03-03 04:01:00,37.0,24.0,-100.00,WSW,240,36.0,46.0,58,0.00,,,-99.99,,2013-03-03 11:01:00,
2013-03-03 04:11:00,37.0,24.0,-100.00,SW,235,36.0,46.0,57,0.00,,,-99.99,,2013-03-03 11:11:00,
2013-03-03 04:21:00,37.0,24.0,-100.00,WSW,255,37.0,45.0,58,0.00,,,-99.99,,2013-03-03 11:21:00,
2013-03-03 04:32:00,37.0,24.0,-100.00,WSW,245,35.0,44.0,59,0.00,,,-99.99,,2013-03-03 11:32:00,
2013-03-03 04:42:00,36.0,24.0,-100.00,WSW,240,32.0,42.0,59,0.00,,,-99.99,,2013-03-03 11:42:00,
2013-03-03 04:52:00,36.0,24.0,-100.00,WSW,245,35.0,43.0,60,0.00,,,-99.99,,2013-03-03 11:52:00,
2013-03-03 05:01:00,37.0,24.0,-100.00,WSW,240,37.0,47.0,60,0.00,,,-99.99,,2013-03-03 12:01:00,
2013-03-03 05:11:00,37.0,24.0,-100.00,WSW,245,37.0,47.0,59,0.00,,,-99.99,,2013-03-03 12:11:00,
2013-03-03 05:21:00,37.0,24.0,-100.00,WSW,240,35.0,45.0,60,0.00,,,-99.99,,2013-03-03 12:21:00,
2013-03-03 05:32:00,36.0,24.0,-100.00,WSW,240,34.0,46.0,61,0.00,,,-99.99,,2013-03-03 12:32:00,
2013-03-03 05:42:00,36.0,25.0,-100.00,WSW,245,34.0,44.0,61,0.00,,,-99.99,,2013-03-03 12:42:00,
2013-03-03 05:52:00,36.0,24.0,-100.00,WSW,240,35.0,42.0,60,0.00,,,-99.99,,2013-03-03 12:52:00,
2013-03-03 06:01:00,36.0,24.0,-100.00,SW,230,34.0,43.0,60,0.00,,,-99.99,,2013-03-03 13:01:00,
2013-03-03 06:11:00,37.0,24.0,-100.00,WSW,240,34.0,43.0,60,0.00,,,-99.99,,2013-03-03 13:11:00,
2013-03-03 06:21:00,37.0,24.0,-100.00,WSW,240,34.0,43.0,59,0.00,,,-99.99,,2013-03-03 13:21:00,
2013-03-03 06:32:00,36.0,24.0,-100.00,WSW,240,36.0,43.0,60,0.00,,,-99.99,,2013-03-03 13:32:00,
2013-03-03 06:42:00,36.0,24.0,-100.00,SW,230,34.0,43.0,60,0.00,,,-99.99,,2013-03-03 13:42:00,
2013-03-03 06:51:00,37.0,25.0,-100.00,WSW,250,36.0,48.0,61,0.00,,,-99.99,,2013-03-03 13:51:00,
2013-03-03 07:02:00,37.0,25.0,-100.00,WSW,240,37.0,46.0,61,0.00,,,-99.99,,2013-03-03 14:02:00,
2013-03-03 07:11:00,37.0,25.0,-100.00,WSW,245,35.0,45.0,61,0.00,,,-99.99,,2013-03-03 14:11:00,
2013-03-03 07:21:00,37.0,25.0,-100.00,SW,235,34.0,45.0,61,0.00,,,-99.99,,2013-03-03 14:21:00,
2013-03-03 07:32:00,37.0,25.0,-100.00,WSW,245,34.0,45.0,61,0.00,,,-99.99,,2013-03-03 14:32:00,
2013-03-03 07:42:00,37.0,25.0,-100.00,SW,235,35.0,45.0,61,0.00,,,-99.99,,2013-03-03 14:42:00,
2013-03-03 07:52:00,37.0,26.0,-100.00,SW,235,34.0,40.0,62,0.00,,,-99.99,,2013-03-03 14:52:00,
2013-03-03 08:01:00,37.0,26.0,-100.00,WSW,240,34.0,47.0,62,0.00,,,-99.99,,2013-03-03 15:01:00,
2013-03-03 08:11:00,37.0,26.0,-100.00,WSW,250,31.0,40.0,63,0.00,,,-99.99,,2013-03-03 15:11:00,
2013-03-03 08:22:00,37.0,26.0,-100.00,West,260,32.0,42.0,63,0.00,,,-99.99,,2013-03-03 15:22:00,
2013-03-03 08:32:00,38.0,27.0,-100.00,WSW,245,30.0,40.0,63,0.00,,,-99.99,,2013-03-03 15:32:00,
2013-03-03 08:42:00,38.0,27.0,-100.00,WSW,255,38.0,45.0,65,0.00,,,-99.99,,2013-03-03 15:42:00,
2013-03-03 08:51:00,36.0,28.0,-100.00,WSW,250,42.0,48.0,71,0.01,,,-99.99,,2013-03-03 15:51:00,
2013-03-03 09:01:00,36.0,30.0,-100.00,WSW,245,35.0,47.0,77,0.03,,,-99.99,,2013-03-03 16:01:00,
2013-03-03 09:12:00,36.0,30.0,-100.00,WSW,250,38.0,47.0,77,0.04,,,-99.99,,2013-03-03 16:12:00,
2013-03-03 09:21:00,35.0,32.0,-100.00,West,265,32.0,43.0,87,0.04,,,-99.99,,2013-03-03 16:21:00,
2013-03-03 09:32:00,34.0,33.0,-100.00,WSW,255,38.0,46.0,96,0.06,,,-99.99,,2013-03-03 16:32:00,
2013-03-03 09:42:00,33.0,33.0,-100.00,West,260,34.0,42.0,99,0.03,,,-99.99,,2013-03-03 16:42:00,
2013-03-03 09:52:00,32.0,32.0,-100.00,WSW,250,32.0,43.0,99,0.06,,,-99.99,,2013-03-03 16:52:00,
2013-03-03 10:01:00,32.0,32.0,-100.00,West,260,30.0,40.0,99,0.07,,,-99.99,,2013-03-03 17:01:00,
2013-03-03 10:11:00,31.0,31.0,-100.00,WSW,245,34.0,42.0,99,0.06,,,-99.99,,2013-03-03 17:11:00,
2013-03-03 10:22:00,31.0,31.0,-100.00,WSW,250,30.0,41.0,99,0.04,,,-99.99,,2013-03-03 17:22:00,
2013-03-03 10:32:00,32.0,32.0,-100.00,WSW,245,29.0,39.0,99,0.03,,,-99.99,,2013-03-03 17:32:00,
2013-03-03 10:42:00,32.0,32.0,-100.00,WSW,245,27.0,37.0,99,0.06,,,-99.99,,2013-03-03 17:42:00,
2013-03-03 10:52:00,32.0,32.0,-100.00,WSW,240,30.0,35.0,99,0.04,,,-99.99,,2013-03-03 17:52:00,
2013-03-03 11:01:00,32.0,32.0,-100.00,WSW,240,27.0,37.0,99,0.03,,,-99.99,,2013-03-03 18:01:00,
2013-03-03 11:11:00,32.0,32.0,-100.00,SW,235,30.0,35.0,98,0.03,,,-99.99,,2013-03-03 18:11:00,
2013-03-03 11:21:00,33.0,32.0,-100.00,WSW,240,30.0,38.0,98,0.06,,,-99.99,,2013-03-03 18:21:00,
2013-03-03 11:32:00,33.0,32.0,-100.00,SW,230,28.0,36.0,98,0.03,,,-99.99,,2013-03-03 18:32:00,
2013-03-03 11:42:00,33.0,32.0,-100.00,WSW,250,29.0,37.0,98,0.04,,,-99.99,,2013-03-03 18:42:00,
2013-03-03 11:52:00,32.0,32.0,-100.00,WSW,245,32.0,41.0,99,0.07,,,-99.99,,2013-03-03 18:52:00,
2013-03-03 12:01:00,32.0,32.0,-100.00,WSW,245,28.0,37.0,99,0.03,,,-99.99,,2013-03-03 19:01:00,
2013-03-03 12:11:00,32.0,32.0,-100.00,WSW,240,31.0,37.0,99,0.03,,,-99.99,,2013-03-03 19:11:00,
2013-03-03 12:21:00,32.0,32.0,-100.00,WSW,245,30.0,39.0,99,0.08,,,-99.99,,2013-03-03 19:21:00,
2013-03-03 12:32:00,32.0,32.0,-100.00,WSW,250,30.0,37.0,99,0.08,,,-99.99,,2013-03-03 19:32:00,
2013-03-03 12:42:00,33.0,33.0,-100.00,WSW,255,26.0,35.0,99,0.07,,,-99.99,,2013-03-03 19:42:00,
2013-03-03 12:51:00,33.0,33.0,-100.00,WSW,245,30.0,35.0,99,0.06,,,-99.99,,2013-03-03 19:51:00,
2013-03-03 13:01:00,33.0,33.0,-100.00,WSW,255,23.0,34.0,99,0.03,,,-99.99,,2013-03-03 20:01:00,
2013-03-03 13:11:00,33.0,33.0,-100.00,WSW,250,25.0,34.0,99,0.06,,,-99.99,,2013-03-03 20:11:00,
2013-03-03 13:21:00,33.0,33.0,-100.00,WSW,250,24.0,36.0,99,0.03,,,-99.99,,2013-03-03 20:21:00,
2013-03-03 13:32:00,32.0,32.0,-100.00,WSW,245,25.0,34.0,99,0.06,,,-99.99,,2013-03-03 20:32:00,
2013-03-03 13:42:00,33.0,33.0,-100.00,WSW,255,21.0,30.0,99,0.08,,,-99.99,,2013-03-03 20:42:00,
2013-03-03 13:52:00,33.0,33.0,-100.00,WSW,250,24.0,32.0,99,0.10,,,-99.99,,2013-03-03 20:52:00,
2013-03-03 14:02:00,32.0,32.0,-100.00,West,265,24.0,29.0,99,0.03,,,-99.99,,2013-03-03 21:02:00,
2013-03-03 14:11:00,32.0,32.0,-100.00,West,260,25.0,30.0,99,0.04,,,-99.99,,2013-03-03 21:11:00,
2013-03-03 14:21:00,32.0,32.0,-100.00,West,265,29.0,35.0,99,0.07,,,-99.99,,2013-03-03 21:21:00,
2013-03-03 14:32:00,31.0,31.0,-100.00,West,260,29.0,35.0,99,0.11,,,-99.99,,2013-03-03 21:32:00,
2013-03-03 14:41:00,31.0,31.0,-100.00,WSW,255,26.0,38.0,99,0.10,,,-99.99,,2013-03-03 21:41:00,
2013-03-03 14:52:00,31.0,31.0,-100.00,West,265,29.0,36.0,99,0.01,,,-99.99,,2013-03-03 21:52:00,
2013-03-03 15:01:00,32.0,32.0,-100.00,WSW,240,27.0,38.0,99,0.23,,,-99.99,,2013-03-03 22:01:00,
2013-03-03 15:11:00,32.0,32.0,-100.00,WSW,240,24.0,36.0,99,0.10,,,-99.99,,2013-03-03 22:11:00,
2013-03-03 15:22:00,32.0,32.0,-100.00,WSW,255,24.0,32.0,99,0.07,,,-99.99,,2013-03-03 22:22:00,
2013-03-03 15:32:00,32.0,32.0,-100.00,WSW,255,27.0,35.0,99,0.06,,,-99.99,,2013-03-03 22:32:00,
2013-03-03 15:42:00,32.0,32.0,-100.00,WSW,255,27.0,38.0,99,0.04,,,-99.99,,2013-03-03 22:42:00,
2013-03-03 15:52:00,32.0,32.0,-100.00,WSW,245,25.0,31.0,99,0.06,,,-99.99,,2013-03-03 22:52:00,
2013-03-03 16:01:00,32.0,32.0,-100.00,WSW,240,22.0,32.0,99,0.03,,,-99.99,,2013-03-03 23:01:00,
2013-03-03 16:11:00,32.0,32.0,-100.00,WSW,240,25.0,32.0,99,0.03,,,-99.99,,2013-03-03 23:11:00,
2013-03-03 16:21:00,32.0,32.0,-100.00,WSW,245,29.0,38.0,99,0.06,,,-99.99,,2013-03-03 23:21:00,
2013-03-03 16:31:00,32.0,32.0,-100.00,WSW,250,27.0,34.0,99,0.01,,,-99.99,,2013-03-03 23:31:00,
2013-03-03 16:41:00,32.0,32.0,-100.00,WSW,240,31.0,37.0,98,0.06,,,-99.99,,2013-03-03 23:41:00,
2013-03-03 16:52:00,32.0,32.0,-100.00,WSW,240,22.0,38.0,98,0.03,,,-99.99,,2013-03-03 23:52:00,
2013-03-03 17:01:00,33.0,32.0,-100.00,SW,235,23.0,32.0,97,0.10,,,-99.99,,2013-03-04 00:01:00,
2013-03-03 17:11:00,32.0,32.0,-100.00,WSW,240,28.0,34.0,97,0.04,,,-99.99,,2013-03-04 00:11:00,
2013-03-03 17:21:00,32.0,32.0,-100.00,WSW,245,26.0,32.0,98,0.06,,,-99.99,,2013-03-04 00:21:00,
2013-03-03 17:32:00,31.0,31.0,-100.00,SW,235,26.0,35.0,99,0.06,,,-99.99,,2013-03-04 00:32:00,
2013-03-03 17:42:00,32.0,32.0,-100.00,WSW,245,26.0,34.0,99,0.03,,,-99.99,,2013-03-04 00:42:00,
2013-03-03 17:52:00,32.0,32.0,-100.00,WSW,240,27.0,34.0,99,0.03,,,-99.99,,2013-03-04 00:52:00,
2013-03-03 18:01:00,33.0,32.0,-100.00,SW,230,26.0,33.0,97,0.01,,,-99.99,,2013-03-04 01:01:00,
2013-03-03 18:11:00,33.0,32.0,-100.00,SW,235,28.0,40.0,96,0.00,,,-99.99,,2013-03-04 01:11:00,
2013-03-03 18:21:00,33.0,32.0,-100.00,SW,235,24.0,36.0,96,0.00,,,-99.99,,2013-03-04 01:21:00,
2013-03-03 18:32:00,33.0,32.0,-100.00,SW,235,29.0,37.0,96,0.03,,,-99.99,,2013-03-04 01:32:00,
2013-03-03 18:42:00,33.0,32.0,-100.00,WSW,255,29.0,40.0,96,0.00,,,-99.99,,2013-03-04 01:42:00,
2013-03-03 18:51:00,33.0,32.0,-100.00,WSW,245,31.0,40.0,96,0.03,,,-99.99,,2013-03-04 01:51:00,
2013-03-03 19:01:00,33.0,32.0,-100.00,WSW,240,27.0,39.0,95,0.00,,,-99.99,,2013-03-04 02:01:00,
2013-03-03 19:11:00,33.0,32.0,-100.00,WSW,250,30.0,40.0,96,0.00,,,-99.99,,2013-03-04 02:11:00,
2013-03-03 19:22:00,33.0,33.0,-100.00,WSW,245,30.0,39.0,96,0.00,,,-99.99,,2013-03-04 02:22:00,
2013-03-03 19:32:00,33.0,32.0,-100.00,WSW,250,26.0,33.0,96,0.00,,,-99.99,,2013-03-04 02:32:00,
2013-03-03 19:42:00,33.0,32.0,-100.00,WSW,255,29.0,38.0,96,0.00,,,-99.99,,2013-03-04 02:42:00,
2013-03-03 19:52:00,33.0,32.0,-100.00,WSW,250,30.0,36.0,95,0.00,,,-99.99,,2013-03-04 02:52:00,
2013-03-03 20:01:00,33.0,32.0,-100.00,WSW,245,33.0,37.0,95,0.00,,,-99.99,,2013-03-04 03:01:00,
2013-03-03 20:11:00,33.0,32.0,-100.00,WSW,255,32.0,37.0,95,0.00,,,-99.99,,2013-03-04 03:11:00,
2013-03-03 20:21:00,33.0,32.0,-100.00,WSW,250,30.0,39.0,94,0.00,,,-99.99,,2013-03-04 03:21:00,
2013-03-03 20:32:00,33.0,32.0,-100.00,WSW,250,29.0,36.0,95,0.00,,,-99.99,,2013-03-04 03:32:00,
2013-03-03 20:42:00,33.0,32.0,-100.00,SW,235,27.0,37.0,94,0.01,,,-99.99,,2013-03-04 03:42:00,
2013-03-03 20:52:00,33.0,32.0,-100.00,WSW,250,29.0,39.0,94,0.01,,,-99.99,,2013-03-04 03:52:00,
2013-03-03 21:01:00,33.0,31.0,-100.00,WSW,250,27.0,42.0,94,0.01,,,-99.99,,2013-03-04 04:01:00,
2013-03-03 21:11:00,33.0,31.0,-100.00,WSW,250,29.0,35.0,94,0.01,,,-99.99,,2013-03-04 04:11:00,
2013-03-03 21:22:00,33.0,31.0,-100.00,WSW,245,32.0,38.0,94,0.01,,,-99.99,,2013-03-04 04:22:00,
2013-03-03 21:32:00,33.0,31.0,-100.00,WSW,250,26.0,38.0,94,0.01,,,-99.99,,2013-03-04 04:32:00,
2013-03-03 21:42:00,33.0,31.0,-100.00,WSW,250,29.0,39.0,94,0.00,,,-99.99,,2013-03-04 04:42:00,
2013-03-03 21:51:00,33.0,31.0,-100.00,WSW,240,26.0,39.0,93,0.00,,,-99.99,,2013-03-04 04:51:00,
2013-03-03 22:01:00,33.0,30.0,-100.00,SW,230,29.0,37.0,91,0.00,,,-99.99,,2013-03-04 05:01:00,
2013-03-03 22:11:00,32.0,30.0,-100.00,WSW,240,27.0,37.0,91,0.00,,,-99.99,,2013-03-04 05:11:00,
2013-03-03 22:22:00,32.0,30.0,-100.00,WSW,250,29.0,37.0,91,0.00,,,-99.99,,2013-03-04 05:22:00,
2013-03-03 22:31:00,32.0,30.0,-100.00,WSW,245,28.0,37.0,91,0.00,,,-99.99,,2013-03-04 05:31:00,
2013-03-03 22:42:00,32.0,29.0,-100.00,WSW,240,28.0,35.0,91,0.00,,,-99.99,,2013-03-04 05:42:00,
2013-03-03 22:52:00,32.0,29.0,-100.00,SW,235,26.0,37.0,91,0.00,,,-99.99,,2013-03-04 05:52:00,
2013-03-03 23:01:00,32.0,29.0,-100.00,WSW,250,32.0,40.0,90,0.00,,,-99.99,,2013-03-04 06:01:00,
2013-03-03 23:11:00,32.0,29.0,-100.00,SW,235,30.0,39.0,90,0.00,,,-99.99,,2013-03-04 06:11:00,
2013-03-03 23:21:00,31.0,29.0,-100.00,WSW,250,26.0,31.0,89,0.00,,,-99.99,,2013-03-04 06:21:00,
2013-03-03 23:32:00,31.0,29.0,-100.00,WSW,250,27.0,35.0,89,0.00,,,-99.99,,2013-03-04 06:32:00,
2013-03-03 23:42:00,31.0,29.0,-100.00,WSW,245,26.0,32.0,89,0.00,,,-99.99,,2013-03-04 06:42:00,
2013-03-03 23:51:00,31.0,28.0,-100.00,WSW,250,26.0,34.0,88,0.00,,,-99.99,,2013-03-04 06:51:00,